Time,TemperatureF,DewpointF,PressureIn,WindDirection,WindDirectionDegrees,WindSpeedMPH,WindSpeedGustMPH,Humidity,HourlyPrecipIn,Conditions,Clouds,dailyrainin,SoftwareType,DateUTC
2013-02-10 00:00:00,23.5,17.0,30.24,SSW,208,0.0,0.0,76,0.00,,,0.00,Wunderground v.1.15,2013-02-10 05:00:00,
2013-02-10 11:05:00,35.1,19.2,30.28,SSE,163,2.0,2.0,52,0.00,,,0.00,Wunderground v.1.15,2013-02-10 16:05:00,
2013-02-10 11:10:00,35.8,20.3,30.28,ENE,67,2.0,5.0,53,0.00,,,0.00,Wunderground v.1.15,2013-02-10 16:10:00,
2013-02-10 11:20:00,35.9,18.1,30.28,East,94,2.0,2.0,48,0.00,,,0.00,Wunderground v.1.15,2013-02-10 16:20:00,
2013-02-10 11:25:00,35.5,18.2,30.28,SE,144,1.0,5.0,49,0.00,,,0.00,Wunderground v.1.15,2013-02-10 16:25:00,
2013-02-10 11:30:00,35.3,18.0,30.28,SW,226,2.0,5.0,49,0.00,,,0.00,Wunderground v.1.15,2013-02-10 16:30:00,
2013-02-10 11:40:00,35.5,18.7,30.28,ENE,69,2.0,5.0,50,0.00,,,0.00,Wunderground v.1.15,2013-02-10 16:40:00,
2013-02-10 11:50:00,37.0,19.6,30.27,NE,40,2.0,2.0,49,0.00,,,0.00,Wunderground v.1.15,2013-02-10 16:50:00,
2013-02-10 12:00:00,38.3,20.8,30.26,ESE,114,2.0,2.0,49,0.00,,,0.00,Wunderground v.1.15,2013-02-10 17:00:00,
2013-02-10 12:10:00,39.5,21.9,30.25,ENE,61,2.0,5.0,49,0.00,,,0.00,Wunderground v.1.15,2013-02-10 17:10:00,
2013-02-10 12:20:00,39.8,20.7,30.24,NNE,13,3.0,3.0,46,0.00,,,0.00,Wunderground v.1.15,2013-02-10 17:20:00,
2013-02-10 12:35:00,41.8,22.0,30.24,ENE,78,3.0,3.0,45,0.00,,,0.00,Wunderground v.1.15,2013-02-10 17:35:00,
2013-02-10 12:40:00,42.7,21.7,30.24,SE,135,3.0,3.0,43,0.00,,,0.00,Wunderground v.1.15,2013-02-10 17:40:00,
2013-02-10 12:55:00,42.7,21.7,30.23,East,101,2.0,2.0,43,0.00,,,0.00,Wunderground v.1.15,2013-02-10 17:55:00,
2013-02-10 13:01:00,42.8,20.7,30.22,ESE,119,2.0,2.0,41,0.00,,,0.00,Wunderground v.1.15,2013-02-10 18:01:00,
2013-02-10 13:10:00,43.2,22.2,30.22,ENE,68,2.0,8.0,43,0.00,,,0.00,Wunderground v.1.15,2013-02-10 18:10:00,
2013-02-10 13:20:00,42.8,22.4,30.21,ENE,63,3.0,8.0,44,0.00,,,0.00,Wunderground v.1.15,2013-02-10 18:20:00,
2013-02-10 13:30:00,43.3,21.7,30.21,ESE,111,2.0,8.0,42,0.00,,,0.00,Wunderground v.1.15,2013-02-10 18:30:00,
2013-02-10 13:40:00,43.2,21.1,30.21,South,184,3.0,3.0,41,0.00,,,0.00,Wunderground v.1.15,2013-02-10 18:40:00,
2013-02-10 13:55:00,43.7,22.6,30.20,East,84,3.0,3.0,43,0.00,,,0.00,Wunderground v.1.15,2013-02-10 18:55:00,
2013-02-10 14:00:00,44.3,22.6,30.20,ENE,65,2.0,3.0,42,0.00,,,0.00,Wunderground v.1.15,2013-02-10 19:00:00,
2013-02-10 14:10:00,44.8,21.9,30.20,ENE,67,3.0,4.0,40,0.00,,,0.00,Wunderground v.1.15,2013-02-10 19:10:00,
2013-02-10 14:20:00,45.1,21.6,30.19,East,86,3.0,3.0,39,0.00,,,0.00,Wunderground v.1.15,2013-02-10 19:20:00,
2013-02-10 14:30:00,45.5,22.5,30.18,ENE,67,2.0,2.0,40,0.00,,,0.00,Wunderground v.1.15,2013-02-10 19:30:00,
2013-02-10 14:40:00,44.7,21.8,30.17,NE,50,3.0,4.0,40,0.00,,,0.00,Wunderground v.1.15,2013-02-10 19:40:00,
2013-02-10 14:50:00,44.2,22.5,30.17,North,8,3.0,3.0,42,0.00,,,0.00,Wunderground v.1.15,2013-02-10 19:50:00,
2013-02-10 15:00:00,44.0,21.2,30.17,North,359,2.0,2.0,40,0.00,,,0.00,Wunderground v.1.15,2013-02-10 20:00:00,
2013-02-10 15:10:00,44.0,21.8,30.17,NE,54,2.0,12.0,41,0.00,,,0.00,Wunderground v.1.15,2013-02-10 20:10:00,
2013-02-10 15:21:00,44.0,22.4,30.17,ESE,116,2.0,2.0,42,0.00,,,0.00,Wunderground v.1.15,2013-02-10 20:21:00,
2013-02-10 15:30:00,43.9,23.4,30.17,ESE,117,2.0,12.0,44,0.00,,,0.00,Wunderground v.1.15,2013-02-10 20:30:00,
2013-02-10 15:40:00,44.4,23.8,30.17,ESE,119,2.0,12.0,44,0.00,,,0.00,Wunderground v.1.15,2013-02-10 20:40:00,
2013-02-10 15:50:00,44.5,23.4,30.17,NE,56,3.0,12.0,43,0.00,,,0.00,Wunderground v.1.15,2013-02-10 20:50:00,
2013-02-10 16:00:00,44.6,23.5,30.17,ENE,72,2.0,12.0,43,0.00,,,0.00,Wunderground v.1.15,2013-02-10 21:00:00,
2013-02-10 16:10:00,44.5,23.4,30.17,ESE,108,1.0,3.0,43,0.00,,,0.00,Wunderground v.1.15,2013-02-10 21:10:00,
2013-02-10 16:20:00,43.9,22.8,30.16,East,100,2.0,2.0,43,0.00,,,0.00,Wunderground v.1.15,2013-02-10 21:20:00,
2013-02-10 16:31:00,43.2,22.7,30.16,ENE,59,1.0,5.0,44,0.00,,,0.00,Wunderground v.1.15,2013-02-10 21:31:00,
2013-02-10 16:40:00,42.6,22.7,30.16,NNE,32,2.0,2.0,45,0.00,,,0.00,Wunderground v.1.15,2013-02-10 21:40:00,
2013-02-10 16:50:00,42.2,21.8,30.15,East,93,1.0,2.0,44,0.00,,,0.00,Wunderground v.1.15,2013-02-10 21:50:00,
2013-02-10 17:01:00,41.8,22.0,30.16,NNE,19,1.0,1.0,45,0.00,,,0.00,Wunderground v.1.15,2013-02-10 22:01:00,
2013-02-10 17:10:00,41.4,21.6,30.16,WSW,243,1.0,13.0,45,0.00,,,0.00,Wunderground v.1.15,2013-02-10 22:10:00,
2013-02-10 17:25:00,40.7,22.5,30.16,NE,50,1.0,1.0,48,0.00,,,0.00,Wunderground v.1.15,2013-02-10 22:25:00,
2013-02-10 17:35:00,40.2,22.5,30.14,NNE,32,1.0,1.0,49,0.00,,,0.00,Wunderground v.1.15,2013-02-10 22:35:00,
2013-02-10 17:40:00,40.0,22.4,30.14,East,96,0.0,13.0,49,0.00,,,0.00,Wunderground v.1.15,2013-02-10 22:40:00,
2013-02-10 17:50:00,39.9,22.3,30.15,WSW,248,0.0,13.0,49,0.00,,,0.00,Wunderground v.1.15,2013-02-10 22:50:00,
2013-02-10 18:01:00,40.0,21.9,30.16,ENE,57,0.0,0.0,48,0.00,,,0.00,Wunderground v.1.15,2013-02-10 23:01:00,
2013-02-10 18:10:00,39.7,22.6,30.16,NNW,339,0.0,0.0,50,0.00,,,0.00,Wunderground v.1.15,2013-02-10 23:10:00,
2013-02-10 18:20:00,39.2,21.1,30.16,NW,304,0.0,0.0,48,0.00,,,0.00,Wunderground v.1.15,2013-02-10 23:20:00,
2013-02-10 18:30:00,39.4,21.3,30.16,ENE,72,1.0,1.0,48,0.00,,,0.00,Wunderground v.1.15,2013-02-10 23:30:00,
2013-02-10 18:40:00,39.5,21.4,30.17,NW,323,1.0,1.0,48,0.00,,,0.00,Wunderground v.1.15,2013-02-10 23:40:00,
2013-02-10 18:51:00,39.5,21.9,30.17,North,5,1.0,1.0,49,0.00,,,0.00,Wunderground v.1.15,2013-02-10 23:51:00,
2013-02-10 19:01:00,39.5,21.4,30.17,WSW,243,1.0,1.0,48,0.00,,,0.00,Wunderground v.1.15,2013-02-11 00:01:00,
2013-02-10 19:10:00,39.4,21.8,30.17,WSW,252,0.0,8.0,49,0.00,,,0.00,Wunderground v.1.15,2013-02-11 00:10:00,
2013-02-10 19:20:00,39.3,21.7,30.17,NNW,335,0.0,8.0,49,0.00,,,0.00,Wunderground v.1.15,2013-02-11 00:20:00,
2013-02-10 19:30:00,39.1,22.0,30.17,North,4,0.0,8.0,50,0.00,,,0.00,Wunderground v.1.15,2013-02-11 00:30:00,
2013-02-10 19:40:00,39.0,21.4,30.17,SW,231,0.0,8.0,49,0.00,,,0.00,Wunderground v.1.15,2013-02-11 00:40:00,
2013-02-10 19:50:00,38.7,23.0,30.17,SW,231,0.0,8.0,53,0.00,,,0.00,Wunderground v.1.15,2013-02-11 00:50:00,
2013-02-10 20:01:00,38.2,23.9,30.17,SW,231,0.0,0.0,56,0.00,,,0.00,Wunderground v.1.15,2013-02-11 01:01:00,
2013-02-10 20:10:00,38.0,24.1,30.17,SW,231,0.0,0.0,57,0.00,,,0.00,Wunderground v.1.15,2013-02-11 01:10:00,